Regional Weather Roundup
Issued by NWS

Home | Current Version | Previous Version | Text Only | Print | Product List | Glossary Off
Versions: 1 2 3 4 5 6 7 8 9 10 11 12 13 14 15 16 17 18 19 20 21 22 23 24 25 26 27 28 29 30 31 32 33 34 35 36 37 38 39 40 41 42 43 44 45 46 47 48 49 50

000
ASUS43 KMKX 282121
RWRWI

WISCONSIN REGIONAL WEATHER ROUNDUP
NATIONAL WEATHER SERVICE MILWAUKEE/SULLIVAN WI
300 PM CST SUN DEC 28 2014

NOTE: "FAIR" INDICATES FEW OR NO CLOUDS BELOW 12,000 FEET WITH NO
SIGNIFICANT WEATHER AND/OR OBSTRUCTIONS TO VISIBILITY.

WIZ001-002-006>008-014>016-023>028-282200-
NORTHWEST WISCONSIN

CITY           SKY/WX    TMP DP  RH WIND       PRES   REMARKS
SUPERIOR ARPT  SUNNY     15  -3  45 NW6       30.24R WCI   6
ASHLAND        CLEAR     16   2  54 NW6       30.20R WCI   7
HAYWARD        SUNNY     17   0  47 VRB3      30.17R
SIREN          SUNNY     19   0  43 N8        30.20R WCI   8
CUMBERLAND     MOSUNNY   18   7  62 N8        30.16R WCI   7
RICE LAKE      SUNNY     19   9  64 NW6       30.19R WCI  11
CHETEK         PTSUNNY   20  10  67 CALM      30.17R
LADYSMITH      PTSUNNY   20  11  68 NW8       30.16R WCI  10
EAU CLAIRE     CLOUDY    19  13  77 CALM      30.18R
MENOMONIE      CLOUDY    20  14  76 CALM      30.19R
NEW RICHMOND   SUNNY     21  12  68 CALM      30.19R
OSCEOLA        SUNNY     22  10  58 NW8       30.22R WCI  12
$$

WIZ003>005-009-010-017-018-282200-
NORTH CENTRAL WISCONSIN

CITY           SKY/WX    TMP DP  RH WIND       PRES   REMARKS
MANITOWISH WTR MOCLDY    13   5  70 NW8       30.10R WCI   1
ARBOR VITAE    FLURRIES  17  11  78 N9        30.10R WCI   5
WOODRUFF       FLURRIES  17  11  78 N9        30.10R WCI   5
RHINELANDER    CLOUDY    17   9  70 NW3       30.09R
EAGLE RIVER    FLURRIES  15   8  73 NW9       30.08R WCI   3
LAND O LAKES   PTCLDY    14   7  74 NW5       30.09R WCI   6
PHILLIPS       PTSUNNY   17   9  71 CALM      30.12R
TOMAHAWK       LGT SNOW  19  13  79 CALM      30.11R
MEDFORD        LGT SNOW  17  13  84 W3        30.11R
MERRILL        CLOUDY    20  14  76 NW6       30.11R WCI  13
$$

WIZ029-030-035-036-043>047-282200-
CENTRAL WISCONSIN

CITY           SKY/WX    TMP DP  RH WIND       PRES   REMARKS
WAUSAU         CLOUDY    18  13  80 NW5       30.11R HAZE    WCI  11
MOSINEE        NOT AVBL
MARSHFIELD     CLOUDY    19  13  77 W5        30.13R WCI  12
STEVENS POINT  FLURRIES  19  15  82 NW5       30.14R WCI  13
WAUPACA        CLOUDY    29  19  66 W9        30.15R WCI  20
WAUTOMA        PTSUNNY   30  19  63 NW6       30.14R WCI  24
WISC RAPIDS    CLOUDY    24  16  71 NW7       30.15R WCI  16
CAMP DOUGLAS   MOSUNNY   30  23  74 W6        30.14R WCI  24
$$

WIZ011>013-019>022-031-037>040-048>050-282200-
NORTHEAST WISCONSIN

CITY           SKY/WX    TMP DP  RH WIND       PRES   REMARKS
ANTIGO         LGT SNOW  17  13  82 W7        30.09R WCI   8
SHAWANO        FLURRIES  26  16  66 W8        30.14R WCI  17
OCONTO         CLOUDY    25  15  65 W7        30.14R WCI  17
STURGEON BAY   PTCLDY    25  14  63 W10       30.15R WCI  15
GREEN BAY      CLOUDY    27  18  69 W9        30.14R WCI  18
MANITOWOC      SUNNY     28  21  75 NW7       30.14R WCI  21
APPLETON       PTSUNNY   27  18  69 NW5       30.13R WCI  21
CLINTONVILLE   CLOUDY    27  18  69 NW6       30.14R WCI  20
OSHKOSH        SUNNY     29  18  63 W6        30.13R WCI  23
$$

WIZ032>034-041-042-053>061-282200-
SOUTHWEST WISCONSIN

CITY           SKY/WX    TMP DP  RH WIND       PRES   REMARKS
LA CROSSE      CLOUDY    29  18  63 N3        30.17R
SPARTA         MOSUNNY   28  19  67 W6        30.17R WCI  22
VIROQUA        SUNNY     28  20  72 CALM      30.13R
BOSCOBEL       SUNNY     33  18  53 SW7       30.16S WCI  27
PRAIRIE DU CHI SUNNY     31  19  58 SW5       30.17R WCI  27
PLATTEVILLE    SUNNY     31  15  51 CALM      30.16R
$$

WIZ056-057-062-063-064-067-068-282200-
SOUTH CENTRAL WISCONSIN

CITY           SKY/WX    TMP DP  RH WIND       PRES   REMARKS
REEDSBURG      CLOUDY    29  19  66 SW3       30.14R
BARABOO/DELLS  PTSUNNY   29  18  63 SW3       30.13R
LONE ROCK      SUNNY     35  17  47 W9        30.16R WCI  28
MINERAL POINT  SUNNY     32  19  59 W7        30.13S WCI  26
MADISON        MOSUNNY   32  18  56 NW6       30.14R WCI  26
MIDDLETON      SUNNY     33  19  55 NW5       30.14R WCI  29
WATERTOWN      SUNNY     31  20  63 W6        30.14R WCI  25
MONROE         SUNNY     32  21  64 W8        30.13S WCI  25
JANESVILLE     SUNNY     36  18  48 W8        30.14R WCI  29
$$

WIZ051-052-058>065-066-070>072-282200-
SOUTHEAST WISCONSIN

CITY           SKY/WX    TMP DP  RH WIND       PRES   REMARKS
MILWAUKEE      MOSUNNY   33  17  51 W8        30.15R WCI  26
WAUKESHA       MOSUNNY   28  18  64 NW13      30.14R WCI  18
MILWAUKEE/TIMM SUNNY     32  18  55 W10       30.14R WCI  24
RACINE         SUNNY     33  18  53 W9        30.16R WCI  25
BURLINGTON     SUNNY     32  19  59 W8        30.15R WCI  25
KENOSHA        SUNNY     34  21  59 W10       30.14R WCI  26
FOND DU LAC    SUNNY     30  18  60 W6        30.14R WCI  24
SHEBOYGAN      SUNNY     29  18  63 NW8       30.14R WCI  21
WEST BEND      SUNNY     30  19  64 W9        30.14R WCI  22
JUNEAU         SUNNY     29  19  66 W3        30.15R
$$

LSZ147-162-282200-
LAKE SUPERIOR

STATION/POSITION TIME  TEMP    WIND        PRES    WAVE
                       AIR SEA DIR/SP/G            HT/PER
                 (UTC) (F)     (DEG/KT/KT) (MB)    (FT/S)
DEVILS ISLAND    2100   14     300/ 13/ 18 1024.5R
PORT WING        2040   15     290/  7/ 11 1023.4R
SAXON HARBOR     2000   18     310/  8/ 13 1022.0R
$$

LMZ867-665-643>646-282200-
LAKE MICHIGAN

STATION/POSITION TIME  TEMP    WIND        PRES    WAVE
                       AIR SEA DIR/SP/G            HT/PER
                 (UTC) (F)     (DEG/KT/KT) (MB)    (FT/S)
CHAMBERS ISLAND  2000   26     290/  6/  9 1019.3R
NORTHPORT PIER   2106   25     290/  9/ 18 1020.0R
SISTER BAY       2013          310/ 14/ 17   N/A
KEWAUNEE LAKESHO 2000   27     280/  8/ 13 1018.7R
SHEBOYGAN LAKESH 2100   29 37  300/  9/ 11 1021.8R
PORT WASHINGTON  2000   32     290/  8/ 10 1021.0
MILWAUKEE LAKESH 2100   32     300/  8/ 11   N/A
KENOSHA   LAKESH 2100   34     290/  9/ 15 1020.7S
$$

TC  - TEMPERATURE IN CELSIUS
VSB - VISIBILITY IN STATUTE MILES
WCI - WIND CHILL INDEX
HX  - HEAT INDEX



USA.gov is the U.S. government's official web portal to all federal, state and local government web resources and services.